Regional Weather Roundup
Issued by NWS

Current Version | Previous Version | Graphics & Text | Print | Product List | Glossary On
Versions: 1 2 3 4 5 6 7 8 9 10 11 12 13 14 15 16 17 18 19 20 21 22 23 24 25 26 27 28 29 30 31 32 33 34 35 36 37 38 39 40 41 42 43 44 45 46 47 48 49 50
000
ASHW40 PHFO 271532
RWRHI

WEATHER ROUNDUP FOR HAWAII
NATIONAL WEATHER SERVICE HONOLULU HI
500 AM HST TUE SEP 27 2016

THIS IS AN AUTOMATED REPORT THAT HAS NOT BEEN QUALITY CONTROLLED.

NOTE..."FAIR" INDICATES FEW OR NO CLOUDS BELOW 12,000 FEET WITH NO
SIGNIFICANT WEATHER AND/OR OBSTRUCTIONS TO VISIBILITY.

* - THESE SITES REPORT LIMITED FIELDS

HIZ001>004-271600-
KAUAI-NIIHAU-

CITY           SKY/WX    TMP DP  RH WIND       PRES   REMARKS
LIHUE APT      PTCLDY    78  67  68 NE15      29.98S
PORT ALLEN*      N/A     77 N/A N/A NE9         N/A
POIPU*           N/A     77 N/A N/A NE10G21     N/A
PRINCEVILLE*     N/A     72 N/A N/A SE3         N/A
KOKOLE POINT*    N/A     75 N/A N/A MISG        N/A
MOLOAA DAIRY*    N/A     75  66  73 E3G9        N/A
WAIMEA HTS*    NOT AVBL
PUU OPAE*      NOT AVBL
PUU LUA*       NOT AVBL
MAKAHA RIDGE*    N/A     70  57  64 NE3G14      N/A
$$

HIZ005>011-271600-
OAHU-

CITY           SKY/WX    TMP DP  RH WIND       PRES   REMARKS
HONOLULU       PTCLDY    75  64  68 E9        29.93S
KALAELOA       CLEAR     69  63  81 E3        29.95S
KANEOHE MCB    PTCLDY    78  67  68 E13       29.92S
WHEELER FIELD  FAIR      69  65  87 NW5       29.94S
BELLOWS*         N/A    N/A N/A N/A NE20        N/A
WHEELER*       NOT AVBL
WAIANAE HARBOR NOT AVBL
DILLINGHAM*      N/A     70  63  78 MISG        N/A
KAHUKU TRN*      N/A     82  75  78 W10G25      N/A
KAWAILOA*        N/A     72  64  78 NE9G20      N/A
KII*             N/A     79  68  69 E18G26      N/A
MAKUA RANGE*     N/A     88  77  70 NW2G12      N/A  HX 100
OAHU FOREST NW NOT AVBL
SCHOFIELD BRK*   N/A     70  63  78 E1          N/A
SCHOFIELD S*   NOT AVBL
WAIANAE VLY*   NOT AVBL
KUAOKALA*      NOT AVBL
HONOULIUULI*   NOT AVBL
MOKUOLOE IS*   NOT AVBL
PALEHUA*       NOT AVBL
WAIAWA PHB*    NOT AVBL
$$

HIZ012>013-271600-
MOLOKAI-

CITY           SKY/WX    TMP DP  RH WIND       PRES   REMARKS
MOLOKAI AIRPT  PTCLDY    77  68  73 NE13G26   29.94S
KALAUPAPA      NOT AVBL
MAKAPULAPAI*     N/A     77  70  78 E18G29      N/A
MOLOKAI 1*     NOT AVBL
PUU ALII*        N/A     58  57  98 NE3G15      N/A
$$

HIZ016-271600-
KAHOOLAWE-

CITY           SKY/WX    TMP DP  RH WIND       PRES   REMARKS
KAHOOLAWE*       N/A     68 N/A N/A E1          N/A
HAKIOAWA*        N/A     71  64  79 MISG      30.33F
HONOKANAIA*      N/A     77  64  65 NE15G26   29.85F
KANELOA*         N/A     73  64  73 E17G28    29.98
KEALIALALO*    NOT AVBL
LUA MAKIKA*    NOT AVBL
$$

HIZ014>015-271600-
LANAI-

CITY           SKY/WX    TMP DP  RH WIND       PRES   REMARKS
LANAI CITY     FAIR      68  63  84 NE9       29.97S
LANAI 1*       NOT AVBL
$$

HIZ017>028-271600-
MAUI-

CITY           SKY/WX    TMP DP  RH WIND       PRES   REMARKS
KAHULUI        CLEAR     75  64  68 NE16      29.93S
KAPALUA-W MAUI NOT AVBL
HANA AIRPORT   NOT AVBL
HANA*            N/A     72 N/A N/A S3          N/A
HALEAKALA SUMM   N/A     45  30  57 SW7G24      N/A
MAALAEA BAY*   NOT AVBL
HALEAKALA*     NOT AVBL
KAUPO GAP*     NOT AVBL
KULA 1*          N/A    N/A N/A N/A E6          N/A
$$

HIZ023>026-271600-
BIG ISLAND OF HAWAII COAST AND LOWER SLOPES-

CITY           SKY/WX    TMP DP  RH WIND       PRES   REMARKS
KAILUA KONA    PTCLDY    74  67  78 E5        29.87S
HILO           LGT RAIN  73  70  88 SE9       29.95R FOG
HONOKAA*         N/A     68 N/A N/A VRB1        N/A
KAWAIHAE MWT*    N/A     75 N/A N/A E5          N/A
KAWAIHAE*        N/A     75 N/A N/A NE3       29.87S
SOUTH POINT*     N/A     72 N/A N/A N14G23      N/A
UPOLU AIRPORT* NOT AVBL
KAMUELA*       SUNNY     63  61  94 N17       30.01S
HAKALAU*         N/A     48  48 100 SW5         N/A
KALOKO-HONOKO*   N/A     75  63  64 NE6       29.86S
PALI 2*          N/A     64  55  72 S16G26      N/A
KEALAKOMO*       N/A     77  64  65 NE15G30     N/A
KAUPULEHU*     NOT AVBL
KAPAPALA*        N/A     63  61  92 NW3         N/A
LOWER KAHUKU*    N/A     61  59  94 N1          N/A
PUHE CS*         N/A     75  61  60 NE3         N/A
PUHO CS*         N/A     74  62  65 E3          N/A
PTA KEAMUKU*     N/A     57  48  72 CALM        N/A
WAIKOLOA*      NOT AVBL
$$

HIZ027>028-271600-
BIG ISLAND OF HAWAII INTERIOR AND SUMMMITS-

CITY           SKY/WX    TMP DP  RH WIND       PRES   REMARKS
BRADSHAW FIELD CLOUDY    49  46  90 SE6       30.24R
MK VISITOR CEN   N/A     50  43  76 E3          N/A
MAUNA KEA*       N/A     39 -13  10 CALM        N/A
MAUNA LOA*       N/A     39  14  35 MISG        N/A
MAUNA LOA 1*   NOT AVBL
PTA KIPUKA*      N/A     48  36  61 E5          N/A
PTA RANGE 17*    N/A     70  59  68 SE9G17      N/A
PTA WEST*        N/A     54  39  58 SE12G18     N/A
NENE CABIN*      N/A     55  45  67 N3          N/A
AHUMOA*        NOT AVBL
PTA PORTABLE*  NOT AVBL
PUU MALI*        N/A     57  34  41 S7          N/A
$$

HIC003-271600-
NORTHWEST ISLANDS-

CITY           SKY/WX    TMP DP  RH WIND       PRES   REMARKS
MIDWAY ISLAND  PTCLDY    79  73  83 SE8       30.05F
MIDWAY NOS*      N/A     79 N/A N/A MISG      30.04F
FRENCH FRIGATE NOT AVBL
$$

PHZ110>124-180-271600-
BUOY REPORTS

STATION/POSITION TIME  TEMP    WIND        PRES    WAVE   SWELL
                       AIR SEA DIR/SP/G            HT/PER HT/DIR
                 (UTC) (F)     (DEG/KT/KT) (MB)    (FT/S) (FT/D)
BUOY 51001       NOT AVBL
BUOY 51101       1450   78 80   60/ 14/ 16 1015.8F   7/ 9   5/ 30
BUOY 51100       NOT AVBL
BUOY 51002       NOT AVBL
BUOY 51003       1450   80 82   40/ 14/ 16 1011.7F   6/ 8   5/ 70
BUOY 51004       1450   80 81   60/ 19/ 23 1010.5F   8/ 9   5/ 80
BARBERS PT BUOY  NOT AVBL
WAIMEA BAY BUOY  1504      81                N/A     5/ 9   2/350
KAILUA BAY BUOY  1504      81                N/A     8/ 9   2/ 10
LANAI BUOY       1415      81                N/A     2/13   2/200
BARBERS PT 2     NOT AVBL
PAUWELA MAUI     1509      80                N/A     7/ 9   2/ 20
HILO             1512      81                N/A     6/ 9   2/ 80
KANEOHE BAY BUOY 1506      80                N/A     7/ 9   2/ 10
HANALEI KAUAI    NOT AVBL
KAHULUI HARBOR   1500   78 81   30/ 12/ 15 1013.6F
HONOLULU HARBOR  1500   78 81  360/  1/  3 1014.2S
KILO NALU        NOT AVBL
HILO HARBOR      1500   75 78  300/  4/  7 1013.5R
MOKUOLOE         1400   78 81   80/ 11/ 14 1014.2F
NAWILIWILI       1500   77 82   40/  9/ 13 1014.8S
WHOTS BUOY       NOT AVBL
BUOY 51028       NOT AVBL
$$

......................KEY........................................
  SKY/WX - SKY CONDITIONS/PRESENT WEATHER
  TMP    - TEMPERATURE IN FAHRENHEIT
  DWPT   - DEWPOINT IN FAHRENHEIT
  RH     - RELATIVE HUMIDITY IN PERCENT
  WIND   - DIRECTION AND SPEED /MPH FOR ISLANDS...KTS FOR BUOYS/
  PRES   - MEAN SEA LEVEL PRESSURE IN INCHES OF HG
  VSB    - VISIBILITY IN MILES
  HX     - HEAT INDEX
  WCI    - WIND CHILL INDEX
  VRB    - VARIABLE WIND DIRECTION
  N/A    - NOT AVAILABLE




USA.gov is the U.S. government's official web portal to all federal, state and local government web resources and services.